EDT,Max TemperatureF,Mean TemperatureF,Min TemperatureF,Max Dew PointF,MeanDew PointF,Min DewpointF,Max Humidity, Mean Humidity, Min Humidity, Max Sea Level PressureIn, Mean Sea Level PressureIn, Min Sea Level PressureIn, Max VisibilityMiles, Mean VisibilityMiles, Min VisibilityMiles, Max Wind SpeedMPH, Mean Wind SpeedMPH, Max Gust SpeedMPH,PrecipitationIn, CloudCover, Events, WindDirDegrees
2012-10-1,64,50,37,48,42,36,100,72,40,29.99,29.93,29.89,10,9,2,8,3,,0.00,1,,116
2012-10-2,66,60,53,64,58,48,100,91,77,29.95,29.89,29.84,10,8,3,9,6,,0.21,7,,114
2012-10-3,71,65,57,63,60,54,100,83,60,30.20,30.07,29.93,10,9,1,13,6,18,0.00,6,,211
2012-10-4,71,62,53,55,52,48,100,75,46,30.22,30.18,30.14,10,10,5,15,4,23,0.00,1,,222
2012-10-5,68,60,53,57,54,50,100,79,68,30.14,30.06,29.92,10,9,0,12,7,17,0.00,6,,240
2012-10-6,53,48,44,52,40,30,100,76,44,30.10,29.99,29.87,10,9,3,16,7,24,0.34,7,,289
2012-10-7,46,40,33,39,36,32,100,85,66,30.16,30.09,30.04,10,8,0,10,5,16,0.15,6,,239
2012-10-8,46,39,32,39,34,30,100,82,57,30.26,30.21,30.15,10,7,0,12,6,,0.00,4,,189
2012-10-9,57,42,28,41,35,27,100,77,48,30.20,30.13,30.00,10,7,0,13,3,17,0.00,2,,181
2012-10-10,48,44,39,45,39,34,93,82,62,30.13,29.97,29.89,10,10,3,15,9,22,0.05,6,,238
2012-10-11,53,42,30,32,29,27,87,58,38,30.27,30.18,30.12,10,10,10,15,9,21,0.01,1,,238
2012-10-12,48,40,32,39,30,25,87,61,40,30.43,30.29,30.12,10,10,3,14,7,22,0.00,3,,338
2012-10-13,57,42,26,45,30,21,86,62,36,30.43,30.29,30.07,10,10,10,13,7,21,0.00,1,,148
2012-10-14,71,62,53,55,53,45,88,65,53,30.06,29.92,29.69,10,10,10,28,14,39,0.00,6,,200
2012-10-15,68,57,46,55,46,41,93,78,56,29.88,29.77,29.65,10,10,6,22,13,32,0.07,8,,260
2012-10-16,53,48,42,43,38,34,93,72,50,29.97,29.92,29.88,10,10,4,9,6,,0.02,5,,268
2012-10-17,66,52,37,43,39,34,93,64,42,29.93,29.88,29.81,10,10,10,15,7,18,0.00,0,,159
2012-10-18,66,55,42,46,43,37,93,72,46,29.83,29.75,29.68,10,10,1,22,11,36,0.34,4,,158
2012-10-19,62,52,41,46,40,36,100,70,37,29.82,29.72,29.63,10,7,0,17,7,23,0.04,6,,163
2012-10-20,48,45,42,43,40,37,93,80,66,29.90,29.77,29.69,10,10,7,16,9,28,0.03,8,,225
2012-10-21,57,48,39,43,38,34,87,70,51,30.15,30.07,29.91,10,10,10,14,8,18,0.00,6,,260
2012-10-22,69,52,35,48,42,34,93,69,43,30.19,30.15,30.09,10,10,5,8,4,,0.00,2,,214
2012-10-23,69,62,55,57,53,48,100,81,52,30.11,30.08,30.04,10,9,1,16,6,23,0.21,7,,210
2012-10-24,71,63,55,57,54,52,100,78,56,30.15,30.11,30.08,10,8,0,12,3,,0.01,4,,213
2012-10-25,78,64,51,54,49,45,88,59,30,30.16,30.10,30.05,10,10,10,16,6,21,0.00,1,,173
2012-10-26,71,60,46,54,51,45,94,78,53,30.14,30.10,30.05,10,10,5,17,9,21,0.09,4,,163
2012-10-27,46,45,44,45,43,41,93,92,87,30.10,30.02,29.98,10,9,2,16,9,18,0.18,8,,9
2012-10-28,42,40,39,41,38,37,100,92,87,30.03,29.95,29.85,10,7,2,18,11,24,0.43,8,,18
2012-10-29,39,37,35,37,37,34,93,93,87,29.86,29.62,29.15,10,9,5,17,9,31,1.23,8,,353
2012-10-30,46,42,37,45,38,34,100,84,66,29.37,29.18,28.99,10,9,2,15,10,31,0.19,8,,69
2012-10-31,41,38,35,39,36,34,100,94,87,29.58,29.46,29.36,10,6,1,15,7,22,0.31,8,,216